Weather History for Hazen, ND

Change the Weather History Date:

Friday, March 22, 2013

  Actual Average (KN60) Record (KN60)
Temperature  
Mean Temperature 20 °F -  
Max Temperature 26 °F 36 °F 71 °F (2012)
Min Temperature 14 °F 19 °F -2 °F (2002)
Degree Days  
Heating Degree Days 45    
Moisture  
Dew Point 13 °F    
Average Humidity 78    
Maximum Humidity 93    
Minimum Humidity 68    
Precipitation  
Precipitation 0.43 in - - ()
Sea Level Pressure  
Sea Level Pressure 29.98 in    
Wind  
Wind Speed 8 mph (ESE)    
Max Wind Speed 12 mph    
Max Gust Speed 17 mph    
Visibility 7 miles    
Events Snow    
Averages and records for this station are not official NWS values.
T = Trace of Precipitation, MM = Missing Value Source: NWS Daily Summary

Daily Weather History Graph

Daily Weather History Graph

Search for Another Location

Airport:

Trip Planner

Search our weather history database for the weather conditions in past years. The results will help you decide how hot, cold, wet, or windy it might be!

Date:

Astronomy

Mar. 22, 2013 Rise Set
Actual Time 7:44 AM CDT 8:02 PM CDT
Civil Twilight 7:14 AM CDT 8:32 PM CDT
Nautical Twilight 6:38 AM CDT 9:09 PM CDT
Astronomical Twilight 6:00 AM CDT 9:46 PM CDT
Moon 3:15 PM CDT (3/22) 5:03 AM CDT (3/22)
Length of Visible Light 13h 18m
Length of Day
12h 17m
Waxing Gibbous, 77% of the Moon is Illuminated
Mar 22
Waxing Gibbous
Mar 27
Full
Apr 2
Last Quarter
Apr 10
New
Apr 18
First Quarter

Hourly Weather History & Observations

Time (CDT) Temp. Windchill Dew Point Humidity Pressure Visibility Wind Dir Wind Speed Gust Speed Precip Events Conditions
12:15 AM 17.6 °F 5.7 °F 8.6 °F 68% 29.99 in 10.0 mi ESE 10.4 mph 17.3 mph N/A   Overcast
12:35 AM 17.6 °F 7.3 °F 8.6 °F 68% 29.99 in 10.0 mi ESE 8.1 mph 16.1 mph N/A   Overcast
12:55 AM 15.8 °F 3.4 °F 8.6 °F 73% 29.99 in 10.0 mi SE 10.4 mph - N/A   Overcast
1:15 AM 15.8 °F 5.1 °F 8.6 °F 73% 29.99 in 10.0 mi ESE 8.1 mph - N/A   Overcast
1:35 AM 15.8 °F 5.1 °F 8.6 °F 73% 29.99 in 10.0 mi ESE 8.1 mph - N/A   Overcast
1:55 AM 15.8 °F 3.4 °F 8.6 °F 73% 29.99 in 10.0 mi ESE 10.4 mph - N/A   Overcast
2:15 AM 15.8 °F 3.4 °F 8.6 °F 73% 29.99 in 10.0 mi ESE 10.4 mph - N/A   Overcast
2:35 AM 15.8 °F 4.2 °F 8.6 °F 73% 29.99 in 10.0 mi ESE 9.2 mph - N/A   Overcast
2:55 AM 15.8 °F 5.1 °F 8.6 °F 73% 29.98 in 10.0 mi ESE 8.1 mph - N/A   Overcast
3:15 AM 15.8 °F 5.1 °F 8.6 °F 73% 29.98 in 10.0 mi East 8.1 mph - N/A   Overcast
3:35 AM 15.8 °F 5.1 °F 8.6 °F 73% 29.98 in 10.0 mi ESE 8.1 mph - N/A   Overcast
3:55 AM 15.8 °F 5.1 °F 8.6 °F 73% 29.98 in 10.0 mi ESE 8.1 mph - N/A   Overcast
4:15 AM 15.8 °F 5.1 °F 8.6 °F 73% 29.97 in 10.0 mi ESE 8.1 mph - N/A   Overcast
4:35 AM 15.8 °F 6.1 °F 8.6 °F 73% 29.97 in 10.0 mi ESE 6.9 mph - N/A   Overcast
4:55 AM 15.8 °F 4.2 °F 8.6 °F 73% 29.96 in 10.0 mi East 9.2 mph - N/A Snow Light Snow
5:15 AM 15.8 °F 6.1 °F 8.6 °F 73% 29.96 in 10.0 mi ESE 6.9 mph - N/A   Overcast
5:35 AM 15.8 °F 5.1 °F 8.6 °F 73% 29.96 in 10.0 mi SE 8.1 mph - N/A   Mostly Cloudy
5:55 AM 15.8 °F 4.2 °F 8.6 °F 73% 29.95 in 10.0 mi East 9.2 mph - N/A   Overcast
6:15 AM 15.8 °F 4.2 °F 8.6 °F 73% 29.95 in 10.0 mi ESE 9.2 mph - N/A   Overcast
6:35 AM 15.8 °F 4.2 °F 8.6 °F 73% 29.95 in 9.0 mi ESE 9.2 mph - N/A Snow Light Snow
6:55 AM 15.8 °F 2.7 °F 8.6 °F 73% 29.95 in 4.0 mi ESE 11.5 mph - 0.01 in Snow Light Snow
7:15 AM 14.0 °F 2.9 °F 8.6 °F 79% 29.96 in 3.0 mi ESE 8.1 mph - 0.01 in Snow Light Snow
7:35 AM 14.0 °F 5.1 °F 8.6 °F 79% 29.96 in 2.5 mi ESE 5.8 mph - 0.03 in Snow Light Snow
7:55 AM 14.0 °F 5.1 °F 8.6 °F 79% 29.96 in 1.0 mi ESE 5.8 mph - 0.07 in Snow Light Snow
8:15 AM 14.0 °F 6.5 °F 8.6 °F 79% 29.96 in 1.2 mi ESE 4.6 mph - 0.02 in Snow Light Snow
8:35 AM 14.0 °F 5.1 °F 10.4 °F 86% 29.96 in 1.2 mi ESE 5.8 mph - 0.06 in Snow Light Snow
8:55 AM 15.8 °F 6.1 °F 10.4 °F 79% 29.96 in 1.2 mi ESE 6.9 mph - 0.10 in Snow Light Snow
9:15 AM 15.8 °F 4.2 °F 10.4 °F 79% 29.96 in 1.5 mi ESE 9.2 mph - 0.01 in Snow Light Snow
9:35 AM 15.8 °F 6.1 °F 10.4 °F 79% 29.96 in 1.5 mi ESE 6.9 mph - 0.04 in Snow Light Snow
10:15 AM 15.8 °F 5.1 °F 10.4 °F 79% 29.96 in 1.0 mi ESE 8.1 mph - 0.02 in Snow Light Snow
10:35 AM 15.8 °F 5.1 °F 10.4 °F 79% 29.95 in 1.2 mi ESE 8.1 mph - 0.06 in Snow Light Snow
10:55 AM 15.8 °F 5.1 °F 10.4 °F 79% 29.95 in 1.8 mi ESE 8.1 mph - 0.09 in Snow Light Snow
11:15 AM 15.8 °F 4.2 °F 10.4 °F 79% 29.95 in 1.0 mi ESE 9.2 mph - 0.02 in Snow Light Snow
11:35 AM 17.6 °F 6.4 °F 12.2 °F 79% 29.96 in 1.2 mi ESE 9.2 mph - 0.05 in Snow Light Snow
11:55 AM 17.6 °F 9.3 °F 14.0 °F 86% 29.96 in 1.8 mi ESE 5.8 mph - 0.06 in Snow Light Snow
12:15 PM 19.4 °F 7.9 °F 14.0 °F 80% 29.96 in 1.5 mi ESE 10.4 mph - N/A Snow Light Snow
12:35 PM 19.4 °F 9.5 °F 14.0 °F 80% 29.96 in 2.0 mi SE 8.1 mph - 0.02 in Snow Light Snow
12:55 PM 19.4 °F 8.6 °F 14.0 °F 80% 29.96 in 2.0 mi SE 9.2 mph - 0.03 in Snow Light Snow
1:15 PM 21.2 °F 12.6 °F 14.0 °F 74% 29.96 in 2.5 mi East 6.9 mph - N/A Snow Light Snow
1:35 PM 23.0 °F 13.1 °F 15.8 °F 74% 29.96 in 3.0 mi ESE 9.2 mph - N/A Snow Light Snow
1:55 PM 23.0 °F 13.9 °F 15.8 °F 74% 29.96 in 3.0 mi SE 8.1 mph - 0.01 in Snow Light Snow
2:15 PM 23.0 °F 14.7 °F 15.8 °F 74% 29.96 in 5.0 mi ESE 6.9 mph - N/A Snow Light Snow
2:35 PM 23.0 °F 13.1 °F 17.6 °F 80% 29.96 in 1.8 mi ESE 9.2 mph - 0.01 in Snow Light Snow
2:55 PM 23.0 °F 13.9 °F 17.6 °F 80% 29.96 in 3.0 mi ESE 8.1 mph - 0.02 in Snow Light Snow
3:15 PM 23.0 °F 14.7 °F 17.6 °F 80% 29.96 in 4.0 mi ESE 6.9 mph - N/A Snow Light Snow
3:35 PM 24.8 °F 16.9 °F 17.6 °F 74% 29.96 in 5.0 mi ESE 6.9 mph - N/A Snow Light Snow
3:55 PM 24.8 °F 16.9 °F 17.6 °F 74% 29.96 in 9.0 mi ESE 6.9 mph - N/A Snow Light Snow
4:15 PM 24.8 °F 16.9 °F 17.6 °F 74% 29.97 in 7.0 mi ESE 6.9 mph - N/A   Mostly Cloudy
4:35 PM 24.8 °F 16.9 °F 17.6 °F 74% 29.97 in 10.0 mi ESE 6.9 mph - N/A   Overcast
4:55 PM 24.8 °F 16.9 °F 19.4 °F 80% 29.97 in 10.0 mi ESE 6.9 mph - N/A   Overcast
5:15 PM 24.8 °F 17.9 °F 19.4 °F 80% 29.97 in 10.0 mi ESE 5.8 mph - N/A   Mostly Cloudy
5:35 PM 26.6 °F 20.0 °F 19.4 °F 74% 29.98 in 9.0 mi SE 5.8 mph - N/A   Mostly Cloudy
5:55 PM 26.6 °F 20.0 °F 19.4 °F 74% 29.98 in 9.0 mi ESE 5.8 mph - N/A   Overcast
6:15 PM 26.6 °F 20.0 °F 19.4 °F 74% 29.99 in 10.0 mi ESE 5.8 mph - N/A   Overcast
6:35 PM 24.8 °F 16.1 °F 19.4 °F 80% 29.99 in 10.0 mi East 8.1 mph - N/A   Overcast
6:55 PM 24.8 °F 16.1 °F 19.4 °F 80% 30.00 in 10.0 mi ENE 8.1 mph - N/A   Overcast
7:15 PM 24.8 °F 16.9 °F 19.4 °F 80% 30.00 in 10.0 mi ENE 6.9 mph - N/A   Overcast
7:35 PM 23.0 °F 13.1 °F 19.4 °F 86% 30.01 in 10.0 mi East 9.2 mph - N/A   Overcast
7:55 PM 23.0 °F 13.1 °F 19.4 °F 86% 30.01 in 10.0 mi ENE 9.2 mph - N/A   Overcast
8:15 PM 23.0 °F 13.1 °F 17.6 °F 80% 30.02 in 10.0 mi ENE 9.2 mph - N/A   Mostly Cloudy
8:35 PM 23.0 °F 13.1 °F 17.6 °F 80% 30.03 in 10.0 mi ENE 9.2 mph - N/A   Overcast
8:55 PM 21.2 °F 12.6 °F 17.6 °F 86% 30.04 in 10.0 mi ENE 6.9 mph - N/A Snow Light Snow
9:15 PM 21.2 °F 12.6 °F 17.6 °F 86% 30.05 in 10.0 mi ENE 6.9 mph - N/A Snow Light Snow
9:35 PM 21.2 °F 14.9 °F 17.6 °F 86% 30.05 in 10.0 mi ENE 4.6 mph - N/A Snow Light Snow
9:55 PM 21.2 °F 13.6 °F 17.6 °F 86% 30.05 in 10.0 mi ENE 5.8 mph - N/A Snow Light Snow
10:15 PM 21.2 °F 14.9 °F 17.6 °F 86% 30.06 in 10.0 mi ENE 4.6 mph - N/A   Overcast
10:35 PM 21.2 °F 13.6 °F 17.6 °F 86% 30.06 in 10.0 mi ENE 5.8 mph - N/A   Mostly Cloudy
10:55 PM 21.2 °F 14.9 °F 17.6 °F 86% 30.07 in 10.0 mi ENE 4.6 mph - N/A   Mostly Cloudy
11:15 PM 21.2 °F 14.9 °F 17.6 °F 86% 30.07 in 10.0 mi ENE 4.6 mph - N/A   Mostly Cloudy
11:35 PM 19.4 °F 11.5 °F 17.6 °F 93% 30.07 in 10.0 mi East 5.8 mph - N/A   Mostly Cloudy
11:55 PM 19.4 °F 12.8 °F 17.6 °F 93% 30.07 in 10.0 mi East 4.6 mph - N/A   Mostly Cloudy